• In Germany
  • List of Countries
  • For 7 days
  • Water Temperature
  • Satellite Maps
  • Weather Map
  • Weather Widgets
  • user-avatar
    Login

    Hourly Weather Larisa

    Today, 24 October, Wednesday

    Time Temperature Precipitation Wind Pressure Humidity
    00:00 +15°C° 0 mm 1 mps 752 mmHg 85%
    01:00 +14°C° 0 mm 1 mps 752 mmHg 86%
    02:00 +14°C° 0 mm 1 mps 752 mmHg 86%
    03:00 +14°C° 0 mm 1 mps 751 mmHg 86%
    04:00 +14°C° 0 mm 1 mps 751 mmHg 86%
    05:00 +14°C° 0 mm 1 mps 751 mmHg 84%
    06:00 +14°C° 0 mm 1 mps 751 mmHg 82%
    07:00 +15°C° 0 mm 1 mps 750 mmHg 80%
    08:00 +16°C° 0 mm 1 mps 750 mmHg 74%
    09:00 +19°C° 0 mm 1 mps 750 mmHg 67%
    10:00 +21°C° 0 mm 1 mps 749 mmHg 60%
    11:00 +22°C° 0 mm 1 mps 749 mmHg 56%
    12:00 +23°C° 0 mm 1 mps 748 mmHg 52%
    13:00 +24°C° 0 mm 1 mps 748 mmHg 47%
    14:00 +23°C° 0 mm 1 mps 747 mmHg 49%
    15:00 +23°C° 0 mm 1 mps 747 mmHg 50%
    16:00 +23°C° 0 mm 1 mps 746 mmHg 52%
    17:00 +22°C° 0 mm 1 mps 747 mmHg 54%
    18:00 +21°C° 0 mm 1 mps 747 mmHg 56%
    19:00 +20°C° 0 mm 1 mps 747 mmHg 58%
    20:00 +19°C° 0 mm 2 mps 747 mmHg 59%
    21:00 +18°C° 0 mm 2 mps 748 mmHg 60%
    22:00 +18°C° 0 mm 2 mps 748 mmHg 60%
    23:00 +18°C° 0 mm 3 mps 749 mmHg 61%

    Tomorrow, 25 October, Thursday

    Time Temperature Precipitation Wind Pressure Humidity
    00:00 +17°C° 0 mm 4 mps 749 mmHg 61%
    01:00 +16°C° 0 mm 5 mps 750 mmHg 62%
    02:00 +15°C° 0 mm 5 mps 750 mmHg 63%
    03:00 +14°C° 0 mm 5 mps 751 mmHg 65%
    04:00 +13°C° 0 mm 4 mps 751 mmHg 67%
    05:00 +13°C° 0 mm 4 mps 752 mmHg 66%
    06:00 +13°C° 0 mm 4 mps 753 mmHg 64%
    07:00 +13°C° 0 mm 4 mps 753 mmHg 63%
    08:00 +14°C° 0 mm 4 mps 754 mmHg 55%
    09:00 +15°C° 0 mm 4 mps 754 mmHg 47%
    10:00 +17°C° 0 mm 4 mps 755 mmHg 39%
    11:00 +18°C° 0 mm 4 mps 754 mmHg 35%
    12:00 +19°C° 0 mm 4 mps 754 mmHg 31%
    13:00 +19°C° 0 mm 4 mps 754 mmHg 26%
    14:00 +19°C° 0 mm 4 mps 754 mmHg 28%
    15:00 +19°C° 0 mm 3 mps 754 mmHg 29%
    16:00 +18°C° 0 mm 3 mps 754 mmHg 30%
    17:00 +17°C° 0 mm 2 mps 755 mmHg 31%
    18:00 +16°C° 0 mm 2 mps 755 mmHg 33%
    19:00 +15°C° 0 mm 2 mps 756 mmHg 34%
    20:00 +15°C° 0 mm 2 mps 756 mmHg 35%
    21:00 +15°C° 0 mm 2 mps 756 mmHg 35%
    22:00 +14°C° 0 mm 1 mps 756 mmHg 36%
    23:00 +14°C° 0 mm 1 mps 756 mmHg 36%

    Day after tomorrow, 26 October, Friday

    Time Temperature Precipitation Wind Pressure Humidity
    00:00 +14°C° 0 mm 1 mps 756 mmHg 37%
    01:00 +14°C° 0 mm 1 mps 756 mmHg 37%
    02:00 +13°C° 0 mm 1 mps 756 mmHg 37%
    03:00 +13°C° 0 mm 1 mps 756 mmHg 37%
    04:00 +13°C° 0 mm 1 mps 756 mmHg 37%
    05:00 +13°C° 0 mm 1 mps 756 mmHg 38%
    06:00 +14°C° 0 mm 1 mps 756 mmHg 39%
    07:00 +14°C° 0 mm 1 mps 757 mmHg 40%
    08:00 +16°C° 0 mm 1 mps 757 mmHg 36%
    09:00 +20°C° 0 mm 1 mps 757 mmHg 33%
    10:00 +22°C° 0 mm 1 mps 757 mmHg 29%
    11:00 +23°C° 0 mm 1 mps 756 mmHg 29%
    12:00 +24°C° 0 mm 1 mps 756 mmHg 29%
    13:00 +25°C° 0 mm 1 mps 756 mmHg 29%
    14:00 +24°C° 0 mm 2 mps 755 mmHg 33%
    15:00 +24°C° 0 mm 2 mps 755 mmHg 37%
    16:00 +23°C° 0 mm 2 mps 755 mmHg 41%
    17:00 +21°C° 0 mm 2 mps 756 mmHg 46%
    18:00 +20°C° 0 mm 2 mps 756 mmHg 50%
    19:00 +19°C° 0 mm 2 mps 756 mmHg 54%
    20:00 +18°C° 0 mm 2 mps 756 mmHg 56%
    21:00 +18°C° 0 mm 2 mps 756 mmHg 58%
    22:00 +18°C° 0 mm 1 mps 757 mmHg 61%
    23:00 +18°C° 0 mm 1 mps 757 mmHg 62%

    27 October, Saturday

    Time Temperature Precipitation Wind Pressure Humidity
    00:00 +18°C° 0 mm 1 mps 756 mmHg 64%
    01:00 +18°C° 0 mm 1 mps 756 mmHg 66%
    02:00 +16°C° 0 mm 1 mps 756 mmHg 67%
    03:00 +16°C° 0 mm 1 mps 756 mmHg 68%
    04:00 +16°C° 0 mm 1 mps 756 mmHg 70%
    05:00 +16°C° 0 mm 1 mps 756 mmHg 69%
    06:00 +18°C° 0 mm 1 mps 756 mmHg 69%
    07:00 +18°C° 0 mm 1 mps 756 mmHg 69%
    08:00 +20°C° 0 mm 1 mps 756 mmHg 63%
    09:00 +22°C° 0 mm 1 mps 756 mmHg 58%
    10:00 +24°C° 0 mm 1 mps 756 mmHg 53%
    11:00 +25°C° 0 mm 1 mps 756 mmHg 51%
    12:00 +26°C° 0 mm 1 mps 755 mmHg 49%
    13:00 +27°C° 0 mm 2 mps 755 mmHg 47%
    14:00 +26°C° 0 mm 2 mps 755 mmHg 50%
    15:00 +26°C° 0 mm 2 mps 755 mmHg 52%
    16:00 +25°C° 0 mm 2 mps 754 mmHg 55%
    17:00 +24°C° 0 mm 2 mps 755 mmHg 60%
    18:00 +23°C° 0 mm 2 mps 755 mmHg 64%
    19:00 +21°C° 0 mm 2 mps 755 mmHg 68%
    20:00 +20°C° 0 mm 2 mps 755 mmHg 70%
    21:00 +21°C° 0 mm 1 mps 755 mmHg 71%
    22:00 +20°C° 0 mm 1 mps 756 mmHg 73%
    23:00 +20°C° 0 mm 1 mps 755 mmHg 74%

    28 October, Sunday

    Time Temperature Precipitation Wind Pressure Humidity
    00:00 +20°C° 0 mm 1 mps 755 mmHg 76%
    01:00 +19°C° 0 mm 1 mps 755 mmHg 77%
    02:00 +19°C° 0 mm 1 mps 755 mmHg 78%
    03:00 +19°C° 0 mm 1 mps 755 mmHg 79%
    04:00 +18°C° 0 mm 1 mps 755 mmHg 81%
    05:00 +19°C° 0 mm 1 mps 755 mmHg 80%
    06:00 +19°C° 0 mm 1 mps 755 mmHg 80%
    07:00 +19°C° 0 mm 1 mps 755 mmHg 80%
    08:00 +21°C° 0 mm 1 mps 755 mmHg 74%
    09:00 +22°C° 0 mm 1 mps 755 mmHg 68%
    10:00 +24°C° 0 mm 2 mps 755 mmHg 62%
    11:00 +24°C° 0 mm 2 mps 755 mmHg 60%
    12:00 +25°C° 0 mm 2 mps 754 mmHg 58%
    13:00 +26°C° 0 mm 2 mps 754 mmHg 55%
    14:00 +25°C° 0 mm 3 mps 754 mmHg 58%
    15:00 +25°C° 0 mm 3 mps 754 mmHg 61%
    16:00 +24°C° 0 mm 3 mps 754 mmHg 64%
    17:00 +22°C° 0 mm 3 mps 754 mmHg 69%
    18:00 +21°C° 0 mm 2 mps 754 mmHg 74%
    19:00 +20°C° 0 mm 2 mps 755 mmHg 79%
    20:00 +20°C° 0 mm 2 mps 755 mmHg 79%
    21:00 +20°C° 0 mm 1 mps 755 mmHg 80%
    22:00 +20°C° 0 mm 1 mps 755 mmHg 81%
    23:00 +20°C° 0 mm 1 mps 754 mmHg 81%

    29 October, Monday

    Time Temperature Precipitation Wind Pressure Humidity
    00:00 +20°C° 0 mm 1 mps 754 mmHg 81%
    01:00 +19°C° 0 mm 1 mps 754 mmHg 81%
    02:00 +19°C° 0 mm 1 mps 754 mmHg 81%
    03:00 +19°C° 0 mm 1 mps 753 mmHg 82%
    04:00 +19°C° 0 mm 1 mps 753 mmHg 82%
    05:00 +18°C° 0 mm 2 mps 753 mmHg 82%
    06:00 +18°C° 0 mm 2 mps 753 mmHg 82%
    07:00 +18°C° 0 mm 2 mps 754 mmHg 82%
    08:00 +20°C° 0.1 mm 2 mps 754 mmHg 75%
    09:00 +21°C° 0.1 mm 2 mps 754 mmHg 67%
    10:00 +24°C° 0.1 mm 2 mps 754 mmHg 60%
    11:00 +24°C° 0.1 mm 2 mps 753 mmHg 58%
    12:00 +25°C° 0.1 mm 2 mps 753 mmHg 57%
    13:00 +25°C° 0.1 mm 3 mps 753 mmHg 55%
    14:00 +25°C° 0 mm 3 mps 752 mmHg 58%
    15:00 +24°C° 0 mm 3 mps 752 mmHg 60%
    16:00 +24°C° 0 mm 3 mps 752 mmHg 63%
    17:00 +22°C° 0 mm 3 mps 752 mmHg 67%
    18:00 +21°C° 0 mm 2 mps 753 mmHg 71%
    19:00 +21°C° 0 mm 2 mps 753 mmHg 74%
    20:00 +20°C° 0 mm 2 mps 753 mmHg 76%
    21:00 +20°C° 0 mm 2 mps 753 mmHg 77%
    22:00 +21°C° 0 mm 1 mps 753 mmHg 78%
    23:00 +21°C° 0 mm 1 mps 753 mmHg 78%

    30 October, Tuesday

    Time Temperature Precipitation Wind Pressure Humidity
    00:00 +20°C° 0 mm 2 mps 752 mmHg 78%
    01:00 +20°C° 0 mm 2 mps 752 mmHg 78%
    02:00 +19°C° 0.1 mm 2 mps 752 mmHg 78%
    03:00 +19°C° 0.1 mm 2 mps 752 mmHg 78%
    04:00 +19°C° 0.1 mm 2 mps 751 mmHg 79%
    05:00 +19°C° 0.1 mm 2 mps 751 mmHg 79%
    06:00 +20°C° 0.1 mm 2 mps 751 mmHg 80%
    07:00 +20°C° 0.1 mm 2 mps 751 mmHg 80%
    08:00 +21°C° 0.1 mm 3 mps 750 mmHg 77%
    09:00 +21°C° 0.1 mm 3 mps 750 mmHg 74%
    10:00 +22°C° 0.1 mm 4 mps 749 mmHg 72%
    11:00 +23°C° 0.1 mm 4 mps 749 mmHg 67%
    12:00 +25°C° 0.1 mm 5 mps 748 mmHg 62%
    13:00 +26°C° 0.1 mm 6 mps 747 mmHg 57%
    14:00 +24°C° 0.9 mm 7 mps 747 mmHg 60%
    15:00 +23°C° 0.9 mm 8 mps 747 mmHg 64%
    16:00 +22°C° 0.9 mm 8 mps 748 mmHg 67%
    17:00 +20°C° 0.7 mm 8 mps 749 mmHg 66%
    18:00 +17°C° 0.7 mm 7 mps 750 mmHg 65%
    19:00 +16°C° 0.7 mm 6 mps 751 mmHg 64%
    20:00 +15°C° 0 mm 5 mps 752 mmHg 66%
    21:00 +15°C° 0 mm 4 mps 752 mmHg 67%
    22:00 +16°C° 0 mm 3 mps 753 mmHg 68%
    23:00 +14°C° 0 mm 3 mps 754 mmHg 69%
    Show more